Flag for Luxembourg Weather past 2 weeks in Ettelbruck, Luxembourg

Now
59 °F

Passing clouds.


Feels Like: 59 °F
Forecast: 51 / 65 °F
Wind: No wind

Location: Luxembourg / Luxembourg

Current Time: Sep 20, 2014 at 8:24:35 AM

Latest Report: Sep 20, 2014 at 7:00 AM


Visibility: 5 mi

Pressure: 29.97 "Hg

Humidity: 97%

Dew point: 58 °F

Location of EttelbruckLocation

Historic Weather in Ettelbruck — Graph

°F

Ettelbruck temperature yesterday

Maximum temperature yesterday: 73 °F (at 4:00 PM)
Minimum temperature yesterday: 60 °F (at 8:00 AM)
Average temperature yesterday: 65 °F

Past Weeks' High & Low Weather Summary

 TemperatureHumidityPressure
High77 °F (Sep 18, 4:00 PM)100% (Sep 15, 10:00 AM)30.21 "Hg (Sep 15, 10:00 AM)
Low49 °F (Sep 12, 7:00 AM)43% (Sep 12, 4:00 PM)29.80 "Hg (Sep 18, 5:00 PM)
Average62 °F78%30.00 "Hg
* Reported Sep 5 7:00 AM — Sep 20 7:00 AM, Ettelbruck, Weather by CustomWeather, © 2014

Note: Actual official high and low records may vary slightly from our data, if they occured in-between our weather recording intervals... More about our weather records

Advertising

Ettelbruck weather history for previous 24 hours

 ConditionsComfort  
Time TempWeatherWind HumidityBarometerVisibility
7:00 AM
Sep 20
59 °FPassing clouds.No wind97%29.97 "Hg5 mi
6:00 AM59 °FFog.No wind96%29.97 "Hg2 mi
5:00 AM59 °FOvercast.2 mph96%29.97 "Hg4 mi
4:00 AM60 °FCool.1 mph94%29.97 "Hg2 mi
3:00 AM60 °FCool.No wind94%29.97 "Hg2 mi
2:00 AM62 °FOvercast.1 mph92%29.96 "Hg12 mi
1:00 AM62 °FCool.1 mph92%29.96 "Hg6 mi
12:00 AM62 °FOvercast.1 mph91%29.96 "Hg12 mi
10:00 PM
Sep 19
65 °FPassing clouds.3 mph88%29.94 "Hg12 mi
9:00 PM66 °FPassing clouds.3 mph87%29.93 "Hg12 mi
8:00 PM68 °FOvercast.2 mph83%29.91 "Hg12 mi
7:00 PM70 °FPartly sunny.2 mph77%29.90 "Hg12 mi
6:00 PM72 °FScattered clouds.2 mph71%29.88 "Hg12 mi
5:00 PM73 °FScattered clouds.1 mph67%29.89 "Hg12 mi
4:00 PM73 °FScattered clouds.3 mph65%29.89 "Hg7 mi
3:00 PM69 °FScattered clouds.2 mph76%29.90 "Hg7 mi
2:00 PM68 °FScattered clouds.2 mph80%29.91 "Hg6 mi
1:00 PM66 °FPartly sunny.1 mph82%29.92 "Hg5 mi
12:00 PM65 °FLow clouds.2 mph87%29.92 "Hg4 mi
11:00 AM62 °FLow clouds.5 mph95%29.93 "Hg4 mi
10:00 AM61 °FFog.2 mph97%29.90 "Hg2 mi
9:00 AM61 °FPartly sunny.No wind95%29.90 "Hg4 mi
8:00 AM60 °FPartly sunny.1 mph95%29.90 "Hg11 mi
Weather by CustomWeather, © 2014

See weather overviewHow to use our weather pages